"Period start","avg(HW err(1)/warn(2) (#))","avg(Visibility (m))","avg(Weather code (#))","avg(Precip intensity (mm/h))","min(HW err(1)/warn(2) (#))","max(HW err(1)/warn(2) (#))","std(HW err(1)/warn(2) (#))","med(HW err(1)/warn(2) (#))","min(Visibility (m))","max(Visibility (m))","std(Visibility (m))","med(Visibility (m))","min(Weather code (#))","max(Weather code (#))","std(Weather code (#))","med(Weather code (#))","min(Precip intensity (mm/h))","max(Precip intensity (mm/h))","std(Precip intensity (mm/h))","med(Precip intensity (mm/h))"
2014-05-13 00:00:00,2,40369,0,0.00,2,2,0,2,32044,44469,4595,42690,0,0,0,0,0.00,0.00,0.00,0.00
2014-05-13 00:10:00,2,47651,0,0.00,2,2,0,2,35465,50000,4461,49954,0,0,0,0,0.00,0.00,0.00,0.00
2014-05-13 00:20:00,2,35095,0,0.00,2,2,0,2,23988,48035,7566,32979,0,0,0,0,0.00,0.00,0.00,0.00
2014-05-13 00:30:00,2,40227,0,0.00,2,2,0,2,29448,49764,5491,40459,0,0,0,0,0.00,0.00,0.00,0.00
2014-05-13 00:40:00,2,31984,0,0.00,2,2,0,2,15036,50000,11613,32696,0,0,0,0,0.00,0.00,0.00,0.00
2014-05-13 00:50:00,2,28773,0,0.00,2,2,0,2,12934,46524,10437,24826,0,0,0,0,0.00,0.00,0.00,0.00
2014-05-13 01:00:00,2,22683,0,0.00,2,2,0,2,16709,31998,5085,19895,0,0,0,0,0.00,0.00,0.00,0.00
2014-05-13 01:10:00,2,11588,0,0.00,2,2,0,2,7190,17516,3347,11795,0,0,0,0,0.00,0.00,0.00,0.00
2014-05-13 01:20:00,2,7909,6,0.00,2,2,0,2,5325,10448,1679,7936,0,10,5,10,0.00,0.00,0.00,0.00
2014-05-13 01:30:00,2,8920,19,0.03,2,2,0,2,6415,14410,2414,8209,10,41,14,10,0.00,0.25,0.08,0.00
2014-05-13 01:40:00,2,7405,42,0.25,2,2,0,2,4606,11494,1995,6962,10,74,25,41,0.00,0.95,0.28,0.17
2014-05-13 01:50:00,2,5360,22,0.01,2,2,0,2,3487,7698,1259,5329,10,71,24,10,0.00,0.15,0.05,0.00
2014-05-13 02:00:00,2,4979,26,0.18,2,2,0,2,2993,7985,1421,5034,10,41,16,26,0.00,0.80,0.26,0.00
2014-05-13 02:10:00,2,3841,72,0.86,2,2,0,2,2842,4822,597,3856,71,74,2,72,0.10,1.90,0.52,0.78
2014-05-13 02:20:00,2,3468,62,0.37,2,2,0,2,2356,4562,541,3411,41,71,14,71,0.00,1.35,0.40,0.23
2014-05-13 02:30:00,2,2578,70,0.85,2,2,0,2,1799,3353,550,2578,41,74,10,74,0.15,2.00,0.53,0.78
2014-05-13 02:40:00,2,2208,72,1.48,2,2,0,2,1762,2951,382,2213,71,74,1,71,0.35,2.00,0.47,1.68
2014-05-13 02:50:00,2,2291,71,1.53,2,2,0,2,1902,2895,305,2192,71,71,0,71,0.25,3.40,0.90,1.60
2014-05-13 03:00:00,2,2460,71,1.70,2,2,0,2,1549,3318,483,2502,71,71,0,71,0.80,2.05,0.35,1.80
2014-05-13 03:10:00,2,2010,71,1.28,2,2,0,2,1265,2710,469,2026,71,71,0,71,0.25,2.45,0.67,1.05
2014-05-13 03:20:00,2,1513,58,1.14,2,2,0,2,1194,1965,235,1474,41,74,16,58,0.15,3.20,0.90,0.90
2014-05-13 03:30:00,2,1284,72,0.98,2,2,0,2,830,1591,222,1278,71,74,2,72,0.35,1.60,0.42,1.08
2014-05-13 03:40:00,2,2159,74,0.94,2,2,0,2,1154,3524,793,1974,74,74,0,74,0.00,2.30,0.65,0.90
2014-05-13 03:50:00,2,2942,59,0.68,2,2,0,2,2176,3538,451,2984,41,71,15,71,0.05,1.80,0.49,0.70
2014-05-13 04:00:00,2,2251,73,2.14,2,2,0,2,1969,2780,266,2168,71,74,1,74,1.30,3.40,0.64,2.00
2014-05-13 04:10:00,2,2149,71,2.69,2,2,0,2,1171,2789,505,2309,71,74,1,71,1.25,4.10,0.85,2.67
2014-05-13 04:20:00,2,3044,72,1.41,2,2,0,2,1912,4117,691,2924,71,74,1,71,0.50,2.40,0.64,1.40
2014-05-13 04:30:00,2,3015,72,0.52,2,2,0,2,2021,4154,714,3103,71,74,1,71,0.15,2.10,0.56,0.33
2014-05-13 04:40:00,2,3623,57,0.66,2,2,0,2,2025,4844,881,3618,41,74,16,56,0.00,1.80,0.57,0.52
2014-05-13 04:50:00,2,6084,43,0.35,1,2,0,2,0,9779,2825,6480,0,71,32,71,0.00,1.00,0.40,0.10
2014-05-13 05:00:00,2,7359,19,0.04,2,2,0,2,5559,11384,1853,6808,10,41,14,10,0.00,0.35,0.11,0.00
2014-05-13 05:10:00,2,9100,10,0.00,2,2,0,2,5661,13680,2293,9386,10,10,0,10,0.00,0.00,0.00,0.00
2014-05-13 05:20:00,2,10061,10,0.00,2,2,0,2,8133,12800,1733,9257,10,10,0,10,0.00,0.00,0.00,0.00
2014-05-13 05:30:00,2,10084,10,0.00,2,2,0,2,7217,13832,2162,9860,10,10,0,10,0.00,0.00,0.00,0.00
2014-05-13 05:40:00,2,9928,40,0.21,2,2,0,2,4727,15812,3189,9856,10,67,18,41,0.00,0.55,0.20,0.17
2014-05-13 05:50:00,2,10149,68,0.26,2,2,0,2,5995,16598,2779,10128,40,71,9,71,0.00,0.85,0.29,0.10
2014-05-13 06:00:00,2,22840,34,0.07,2,2,0,2,12441,38860,7726,21146,0,71,30,41,0.00,0.40,0.14,0.00
2014-05-13 06:10:00,2,29793,0,0.00,2,2,0,2,15380,49868,12972,24258,0,0,0,0,0.00,0.00,0.00,0.00
2014-05-13 06:20:00,2,35396,0,0.00,2,2,0,2,22776,49838,6980,34565,0,0,0,0,0.00,0.00,0.00,0.00
2014-05-13 06:30:00,2,39380,0,0.00,2,2,0,2,28716,50000,8590,40116,0,0,0,0,0.00,0.00,0.00,0.00
2014-05-13 06:40:00,2,35755,0,0.00,2,2,0,2,23053,46021,6105,34530,0,0,0,0,0.00,0.00,0.00,0.00
2014-05-13 06:50:00,2,33674,0,0.00,2,2,0,2,23773,44130,5832,32016,0,0,0,0,0.00,0.00,0.00,0.00
2014-05-13 07:00:00,2,36596,0,0.00,2,2,0,2,27807,46262,5249,35396,0,0,0,0,0.00,0.00,0.00,0.00
2014-05-13 07:10:00,2,32059,0,0.00,2,2,0,2,18463,50000,9556,29436,0,0,0,0,0.00,0.00,0.00,0.00
2014-05-13 07:20:00,2,35889,0,0.00,2,2,0,2,27199,50000,8038,34078,0,0,0,0,0.00,0.00,0.00,0.00
2014-05-13 07:30:00,2,32073,0,0.00,2,2,0,2,17541,43953,9071,33626,0,0,0,0,0.00,0.00,0.00,0.00
2014-05-13 07:40:00,2,21398,0,0.00,2,2,0,2,16638,27108,3334,21280,0,0,0,0,0.00,0.00,0.00,0.00
2014-05-13 07:50:00,2,17782,0,0.00,2,2,0,2,8677,25156,4770,17476,0,0,0,0,0.00,0.00,0.00,0.00
2014-05-13 08:00:00,2,19446,0,0.00,2,2,0,2,11350,34348,8005,17229,0,0,0,0,0.00,0.00,0.00,0.00
2014-05-13 08:10:00,2,15051,12,0.07,2,2,0,2,9870,22703,3827,15212,0,41,19,0,0.00,0.55,0.16,0.00
2014-05-13 08:20:00,2,11532,65,0.14,2,2,0,2,6632,17530,3422,10947,41,71,12,71,0.00,0.30,0.10,0.17
2014-05-13 08:30:00,2,9247,43,0.45,2,2,0,2,4986,12855,2414,9268,0,71,19,41,0.00,1.25,0.48,0.28
2014-05-13 08:40:00,2,6152,71,0.74,2,2,0,2,2900,8589,1670,6476,71,71,0,71,0.00,2.60,0.76,0.45
2014-05-13 08:50:00,2,11766,10,0.00,2,2,0,2,8249,14824,2500,12474,10,10,0,10,0.00,0.00,0.00,0.00
2014-05-13 09:00:00,2,16563,2,0.00,2,2,0,2,8844,20765,3433,18270,0,10,4,0,0.00,0.00,0.00,0.00
2014-05-13 09:10:00,2,12120,0,0.00,2,2,0,2,8225,16909,2506,11732,0,0,0,0,0.00,0.00,0.00,0.00
2014-05-13 09:20:00,2,12043,0,0.00,2,2,0,2,10573,13001,743,12140,0,0,0,0,0.00,0.00,0.00,0.00
2014-05-13 09:30:00,2,5854,50,0.92,2,2,0,2,3946,10626,2062,4874,40,71,12,41,0.20,1.65,0.46,0.85
2014-05-13 09:40:00,2,5550,74,1.30,2,2,0,2,3911,6641,972,5693,71,74,1,74,0.15,2.75,0.72,1.30
2014-05-13 09:50:00,2,8194,58,0.90,2,2,0,2,5393,12010,1667,8152,41,74,16,58,0.40,1.45,0.30,0.88
2014-05-13 10:00:00,2,10081,48,0.49,2,2,0,2,6947,15325,2404,10209,41,54,6,48,0.10,1.35,0.35,0.38
2014-05-13 10:10:00,2,7824,61,1.02,2,2,0,2,5567,11058,1704,7426,54,71,8,54,0.00,1.95,0.59,1.05
2014-05-13 10:20:00,2,8510,71,0.59,2,2,0,2,4678,12854,2839,9152,71,71,0,71,0.05,1.70,0.51,0.48
2014-05-13 10:30:00,2,4135,74,1.66,2,2,0,2,2970,5504,622,4094,74,74,0,74,0.70,3.80,0.91,1.40
2014-05-13 10:40:00,2,4165,64,1.19,2,2,0,2,3168,6031,988,3776,41,74,15,72,0.25,2.85,0.79,1.12
2014-05-13 10:50:00,2,4594,44,1.23,2,2,0,2,3365,5933,981,4582,41,74,10,41,0.35,2.25,0.77,1.18
2014-05-13 11:00:00,2,4887,72,1.23,2,2,0,2,3765,6583,848,4780,71,74,1,71,0.65,2.40,0.58,0.92
2014-05-13 11:10:00,2,4130,73,1.31,2,2,0,2,3353,5034,459,4226,71,74,1,74,0.70,2.85,0.61,1.33
2014-05-13 11:20:00,2,5671,53,0.40,2,2,0,2,4237,8293,1180,5742,41,71,15,41,0.10,1.00,0.34,0.23
2014-05-13 11:30:00,2,4120,61,1.78,2,2,0,2,3354,6356,901,3768,41,74,16,74,0.30,4.00,1.09,1.90
2014-05-13 11:40:00,2,6086,44,0.53,2,2,0,2,5039,8070,947,6053,41,74,10,41,0.15,0.90,0.28,0.47
2014-05-13 11:50:00,2,4896,41,1.02,2,2,0,2,3782,5897,649,4845,41,41,0,41,0.65,1.35,0.27,0.98
2014-05-13 12:00:00,2,5920,41,0.79,2,2,0,2,3903,7622,1185,6049,41,41,0,41,0.35,1.55,0.36,0.68
2014-05-13 12:10:00,2,10324,54,0.14,2,2,0,2,8351,12460,1608,10240,54,54,0,54,0.05,0.30,0.07,0.12
2014-05-13 12:20:00,2,6549,51,1.01,2,2,0,2,4649,9832,1350,6324,41,54,5,54,0.30,1.80,0.40,1.02
2014-05-13 12:30:00,2,8652,44,0.56,2,2,0,2,6403,10454,1196,8424,41,54,5,41,0.15,1.20,0.30,0.50
2014-05-13 12:40:00,2,13662,43,0.04,2,2,0,2,9780,17883,2805,13841,0,54,22,54,0.00,0.10,0.03,0.05
2014-05-13 12:50:00,2,11183,0,0.00,2,2,0,2,7834,17119,2479,11256,0,0,0,0,0.00,0.00,0.00,0.00
2014-05-13 13:00:00,2,14303,0,0.00,2,2,0,2,11741,17939,1757,14116,0,0,0,0,0.00,0.00,0.00,0.00
2014-05-13 13:10:00,2,16498,49,0.14,2,2,0,2,10138,24554,4775,14402,41,54,6,54,0.05,0.30,0.07,0.10
2014-05-13 13:20:00,2,23772,54,0.20,2,2,0,2,20312,31051,3252,22808,54,54,0,54,0.10,0.35,0.08,0.15
2014-05-13 13:30:00,2,27231,54,0.27,2,2,0,2,19739,34585,4480,27623,54,54,0,54,0.05,0.55,0.17,0.28
2014-05-13 13:40:00,2,37316,54,0.14,2,2,0,2,18166,50000,11997,40185,54,54,0,54,0.00,0.60,0.18,0.08
2014-05-13 13:50:00,2,49897,0,0.00,2,2,0,2,48969,50000,309,50000,0,0,0,0,0.00,0.00,0.00,0.00
2014-05-13 14:00:00,2,50000,0,0.00,2,2,0,2,50000,50000,0,50000,0,0,0,0,0.00,0.00,0.00,0.00
2014-05-13 14:10:00,2,49866,0,0.00,2,2,0,2,49112,50000,285,50000,0,0,0,0,0.00,0.00,0.00,0.00
2014-05-13 14:20:00,2,34574,0,0.00,2,2,0,2,17735,50000,14301,33900,0,0,0,0,0.00,0.00,0.00,0.00
2014-05-13 14:30:00,2,14117,16,0.07,2,2,0,2,7242,19426,4581,15865,0,41,20,0,0.00,0.25,0.11,0.00
2014-05-13 14:40:00,2,15623,54,0.07,2,2,0,2,10723,26160,4586,14306,54,54,0,54,0.00,0.25,0.07,0.05
2014-05-13 14:50:00,2,14718,26,0.01,2,2,0,2,8654,21455,5037,12566,0,71,27,20,0.00,0.05,0.02,0.00
2014-05-13 15:00:00,2,10198,71,0.37,2,2,0,2,6046,13603,2778,11524,71,71,0,71,0.00,1.30,0.39,0.25
2014-05-13 15:10:00,2,15163,71,0.16,2,2,0,2,6094,25890,5984,14812,71,71,0,71,0.00,1.05,0.31,0.05
2014-05-13 15:20:00,2,9861,71,0.34,2,2,0,2,3766,18670,4691,9120,71,71,0,71,0.00,1.30,0.43,0.17
2014-05-13 15:30:00,2,29559,12,0.00,2,2,0,2,17342,43901,7155,30004,0,41,19,0,0.00,0.00,0.00,0.00
2014-05-13 15:40:00,2,47271,0,0.00,2,2,0,2,44140,50000,2639,47431,0,0,0,0,0.00,0.00,0.00,0.00
2014-05-13 15:50:00,2,17617,0,0.00,2,2,0,2,7037,44806,11972,13918,0,0,0,0,0.00,0.00,0.00,0.00
2014-05-13 16:00:00,2,10849,0,0.00,2,2,0,2,8501,13193,1470,10962,0,0,0,0,0.00,0.00,0.00,0.00
2014-05-13 16:10:00,2,15048,0,0.00,2,2,0,2,11436,21810,2937,14210,0,0,0,0,0.00,0.00,0.00,0.00
2014-05-13 16:20:00,2,27796,0,0.00,2,2,0,2,16547,34527,4701,28800,0,0,0,0,0.00,0.00,0.00,0.00
2014-05-13 16:30:00,2,30236,0,0.00,2,2,0,2,19420,39056,6951,30926,0,0,0,0,0.00,0.00,0.00,0.00
2014-05-13 16:40:00,2,41742,0,0.00,2,2,0,2,33346,50000,5542,42013,0,0,0,0,0.00,0.00,0.00,0.00
2014-05-13 16:50:00,2,47434,0,0.00,2,2,0,2,43114,50000,2764,48733,0,0,0,0,0.00,0.00,0.00,0.00
2014-05-13 17:00:00,2,46201,0,0.00,2,2,0,2,31675,50000,5338,48199,0,0,0,0,0.00,0.00,0.00,0.00
2014-05-13 17:10:00,2,17877,0,0.00,2,2,0,2,9257,28341,6282,19314,0,0,0,0,0.00,0.00,0.00,0.00
2014-05-13 17:20:00,2,12959,0,0.00,2,2,0,2,9923,16271,2091,12750,0,0,0,0,0.00,0.00,0.00,0.00
2014-05-13 17:30:00,2,21419,0,0.00,2,2,0,2,14826,34043,5795,19352,0,0,0,0,0.00,0.00,0.00,0.00
2014-05-13 17:40:00,2,37104,0,0.00,2,2,0,2,23502,50000,8199,39139,0,0,0,0,0.00,0.00,0.00,0.00
2014-05-13 17:50:00,2,44310,0,0.00,2,2,0,2,36848,50000,4517,44354,0,0,0,0,0.00,0.00,0.00,0.00
2014-05-13 18:00:00,2,46885,0,0.00,2,2,0,2,43660,50000,2344,46838,0,0,0,0,0.00,0.00,0.00,0.00
2014-05-13 18:10:00,2,43108,0,0.00,2,2,0,2,16188,50000,10557,48087,0,0,0,0,0.00,0.00,0.00,0.00
2014-05-13 18:20:00,2,18444,0,0.00,2,2,0,2,10603,25467,4183,19491,0,0,0,0,0.00,0.00,0.00,0.00
2014-05-13 18:30:00,2,30622,0,0.00,2,2,0,2,13697,44368,12941,34050,0,0,0,0,0.00,0.00,0.00,0.00
2014-05-13 18:40:00,2,45911,0,0.00,2,2,0,2,36876,50000,4310,47349,0,0,0,0,0.00,0.00,0.00,0.00
2014-05-13 18:50:00,2,43028,0,0.00,2,2,0,2,37216,50000,4662,40868,0,0,0,0,0.00,0.00,0.00,0.00
2014-05-13 19:00:00,2,45673,0,0.00,2,2,0,2,35732,50000,4226,46526,0,0,0,0,0.00,0.00,0.00,0.00
2014-05-13 19:10:00,2,36436,0,0.00,2,2,0,2,24873,46648,7311,36685,0,0,0,0,0.00,0.00,0.00,0.00
2014-05-13 19:20:00,2,21334,0,0.00,2,2,0,2,11008,32569,7383,21154,0,0,0,0,0.00,0.00,0.00,0.00
2014-05-13 19:30:00,2,20707,0,0.00,2,2,0,2,11362,35288,7803,18320,0,0,0,0,0.00,0.00,0.00,0.00
2014-05-13 19:40:00,2,39040,0,0.00,2,2,0,2,29651,45386,4872,38165,0,0,0,0,0.00,0.00,0.00,0.00
2014-05-13 19:50:00,2,22321,0,0.00,2,2,0,2,13310,31486,5782,22161,0,0,0,0,0.00,0.00,0.00,0.00
2014-05-13 20:00:00,2,16630,0,0.00,2,2,0,2,11181,27006,4622,15070,0,0,0,0,0.00,0.00,0.00,0.00
2014-05-13 20:10:00,2,14373,0,0.00,2,2,0,2,9426,22217,4364,12791,0,0,0,0,0.00,0.00,0.00,0.00
2014-05-13 20:20:00,2,9166,3,0.00,2,2,0,2,6625,12775,1889,9127,0,10,5,0,0.00,0.00,0.00,0.00
2014-05-13 20:30:00,2,8472,10,0.00,2,2,0,2,6604,11592,1306,8342,10,10,0,10,0.00,0.00,0.00,0.00
2014-05-13 20:40:00,2,8976,10,0.00,2,2,0,2,6612,10603,1353,9076,10,10,0,10,0.00,0.00,0.00,0.00
2014-05-13 20:50:00,2,6615,10,0.00,2,2,0,2,4779,8764,1257,6867,10,10,0,10,0.00,0.00,0.00,0.00
2014-05-13 21:00:00,2,11047,10,0.00,2,2,0,2,7637,15069,2390,10878,10,10,0,10,0.00,0.00,0.00,0.00
2014-05-13 21:10:00,2,4670,10,0.00,2,2,0,2,3557,6035,861,4527,10,10,0,10,0.00,0.00,0.00,0.00
2014-05-13 21:20:00,2,6645,10,0.00,2,2,0,2,4797,9022,1323,6734,10,10,0,10,0.00,0.00,0.00,0.00
2014-05-13 21:30:00,2,8943,10,0.00,2,2,0,2,5625,11840,1582,8911,10,10,0,10,0.00,0.00,0.00,0.00
2014-05-13 21:40:00,2,25168,5,0.00,2,2,0,2,11515,45040,10958,22221,0,10,5,5,0.00,0.00,0.00,0.00
2014-05-13 21:50:00,2,35319,0,0.00,2,2,0,2,23507,50000,8280,33668,0,0,0,0,0.00,0.00,0.00,0.00
2014-05-13 22:00:00,2,39382,0,0.00,2,2,0,2,29913,50000,6752,38944,0,0,0,0,0.00,0.00,0.00,0.00
2014-05-13 22:10:00,2,17541,0,0.00,2,2,0,2,9568,27045,5650,17204,0,0,0,0,0.00,0.00,0.00,0.00
2014-05-13 22:20:00,2,16260,0,0.00,2,2,0,2,11659,23159,3206,15444,0,0,0,0,0.00,0.00,0.00,0.00
2014-05-13 22:30:00,2,17122,0,0.00,2,2,0,2,10527,31773,5417,15452,0,0,0,0,0.00,0.00,0.00,0.00
2014-05-13 22:40:00,2,13072,0,0.00,2,2,0,2,7446,18770,3719,13260,0,0,0,0,0.00,0.00,0.00,0.00
2014-05-13 22:50:00,2,12282,0,0.00,2,2,0,2,6357,20062,3926,12203,0,0,0,0,0.00,0.00,0.00,0.00
2014-05-13 23:00:00,2,22165,0,0.00,2,2,0,2,13627,33625,6028,19823,0,0,0,0,0.00,0.00,0.00,0.00
2014-05-13 23:10:00,2,34470,0,0.00,2,2,0,2,21994,50000,8469,32684,0,0,0,0,0.00,0.00,0.00,0.00
2014-05-13 23:20:00,2,32977,0,0.00,2,2,0,2,15546,50000,11631,32907,0,0,0,0,0.00,0.00,0.00,0.00
2014-05-13 23:30:00,2,19685,0,0.00,2,2,0,2,10611,39370,9473,15266,0,0,0,0,0.00,0.00,0.00,0.00
2014-05-13 23:40:00,2,29128,0,0.00,2,2,0,2,17235,40650,7805,27297,0,0,0,0,0.00,0.00,0.00,0.00
2014-05-13 23:50:00,2,27474,0,0.00,2,2,0,2,14714,42317,8690,26506,0,0,0,0,0.00,0.00,0.00,0.00
